Miscellaneous Local Product
Issued by NWS North Platte, NE

Home | Current Version | Previous Version | Text Only | Print | Product List | Glossary On
Versions: 1 2 3 4 5 6 7 8 9 10 11 12 13 14 15 16 17 18 19 20 21 22 23 24 25 26 27 28 29 30 31 32 33 34 35 36 37 38 39 40 41 42 43 44 45 46 47 48 49 50
000
AXUS43 KLBF 051710
MISLBF


WESTERN AND NORTH CENTRAL NEBRASKA HOURLY WEATHER ROUNDUP
NATIONAL WEATHER SERVICE NORTH PLATTE NE
1100 AM CST THU MAR 05 2015

***STATIONS NOT REPORTING VARIABLES SUCH AS SKY/WEATHER OR
PRESSURE ARE PROVIDED BY THE NEBRASKA DEPARTMENT OF
ROADS...RAWS...AND APRS NETWORKS...AND ARE NOT UNDER
NATIONAL WEATHER SERVICE QUALITY CONTROL***

...OBSERVATIONS IN AND NEAR THE EASTERN PANHANDLE OF NEBRASKA...

CITY           SKY/WX    TMP DP  RH WIND       PRES   REMARKS
PINE RIDGE     PTSUNNY   23   7  50 W12       30.19F WCI  12
CHADRON        PTSUNNY   24  10  55 W9        30.21R WCI  14
ALLIANCE       MOSUNNY   37  11  34 W15       30.18S WCI  28
SIDNEY         SUNNY     37  14  38 W15       30.23R WCI  28
WHITECLAY        N/A     26   8  45 W10         N/A  WCI  16
CRESCENT LAKE    N/A     35  10  36 W12         N/A  WCI  27
LISCO            N/A     33   7  33 W17         N/A  WCI  22
BIG SPRINGS      N/A     30  19  63 W12         N/A  WCI  20
LEWELLEN         N/A     32  12  43 W7          N/A  WCI  26
$$

...OBSERVATIONS IN NORTH CENTRAL NEBRASKA...

CITY           SKY/WX    TMP DP  RH WIND       PRES   REMARKS
VALENTINE      SUNNY     25   6  44 SW7       30.23F WCI  17
ORD            SUNNY     22   2  42 SW18      30.37F WCI   7
BROKEN BOW     SUNNY     23   5  46 S16G25    30.33F WCI  10
BROWNLEE         N/A     26   4  39 SW14        N/A  WCI  14
SPRINGVIEW       N/A     25   8  47 S8          N/A  WCI  16
BREWSTER         N/A     29   9  42 S14         N/A  WCI  18
ROSE             N/A     30  15  53 S12         N/A  WCI  20
NEWPORT          N/A     29  11  47 S16         N/A  WCI  17
SARGENT          N/A     22   7  51 MISG        N/A
COMSTOCK         N/A     27   7  43 S12         N/A  WCI  16
CHAMBERS         N/A     25   5  41 S15         N/A  WCI  13
EWING            N/A     25   6  43 S13G24      N/A  WCI  14
$$

...OBSERVATIONS IN SOUTHWEST NEBRASKA AND FAR NORTHEAST COLORADO...

CITY           SKY/WX    TMP DP  RH WIND       PRES   REMARKS
WRAY           FAIR      40   7  25 W9        30.28S WCI  34
IMPERIAL         N/A     35  10  35 SW13      30.28F WCI  26
NORTH PLATTE   SUNNY     27   9  46 SW10      30.30F WCI  17
MCCOOK         SUNNY     28  14  55 S6        30.35F WCI  22
PAXTON           N/A     30  18  60 SW3         N/A
BRADY            N/A     23   9  55 CALM        N/A
GOTHENBURG       N/A     23   9  55 S5          N/A  WCI  17
CALLAWAY         N/A     23   9  55 S13         N/A  WCI  11
$$

...NORTH PLATTE AREA...

CITY           SKY/WX    TMP DP  RH WIND       PRES   REMARKS
AIRPORT        SUNNY     27   9  46 SW10      30.30F WCI  17
DOWNTOWN         N/A     26  11  53 SW5G12      N/A  WCI  20
$$

...SOME WEATHER OBSERVATIONS FROM AROUND THE REGION...

CITY           SKY/WX    TMP DP  RH WIND       PRES   REMARKS
DENVER         PTSUNNY   30   9  41 W7        30.19R WCI  23
LARAMIE        MOSUNNY   26  10  50 SW18      30.16S WCI  13
CHEYENNE       PTSUNNY   34   9  35 W8        30.17R WCI  27
SCOTTSBLUFF    MOSUNNY   32  15  49 NW12      30.21F WCI  23
RAPID CITY     SUNNY     27  14  58 E5        30.12F WCI  22
PIERRE         SUNNY     12   4  70 SE10      30.26F WCI  -1
WINNER         FAIR      22   7  52 S14       30.27F WCI   9
SIOUX FALLS    SUNNY     12   0  58 S8        30.44F WCI   0
OMAHA          SUNNY     16   0  49 S8        30.56F WCI   5
GRAND ISLAND   SUNNY    N/A N/A N/A S13       30.44F
KANSAS CITY    SUNNY     19   0  43 CALM      30.57F
WICHITA        FAIR      33  14  45 S9        30.51F WCI  25
HAYS           SUNNY     32  10  40 SW5       30.43F WCI  27
LIBERAL        SUNNY     28  19  69 SW17      30.43F WCI  16
GOODLAND       SUNNY     36  15  42 SW10      30.31S WCI  28
$$



USA.gov is the U.S. government's official web portal to all federal, state and local government web resources and services.